Terminal Aerodrome Forecast
Issued by NWS

Home | Current Version | Previous Version | Text Only | Print | Product List | Glossary On
Versions: 1 2 3 4 5 6 7 8 9 10 11 12 13 14 15 16 17
000
FTUS44 KEWX 250200 AAA
TAFSSF
TAF AMD
KSSF 250200Z 2502/2524 16005KT P6SM FEW090 SCT250
     FM250800 17004KT P6SM FEW015
     FM251600 15006KT P6SM SCT050
     FM252300 13010KT P6SM SCT060=

USA.gov is the U.S. government's official web portal to all federal, state and local government web resources and services.